QFA861 YBTL-YBBN

Flight info

Callsign QFA861
Flight time N/A
Altitude 39000
Route TL W258 LINSU W228 COCKA Y177 BN
Aircraft B738/M-SDE2E3FGHIRWXY/LB1

Departure

Time 2026-05-07 14:46
Airport Townsville Airport / RAAF Base Townsville (YBTL)

Arrival

Time N/A
Airport Brisbane International Airport (YBBN)
Time Latitude Longitude Altitude Speed Heading
2026-05-07 14:12 -19.25569 146.76992 21 ft 0 kts 105°
2026-05-07 14:28 -19.25564 146.76974 23 ft 4 kts 105°
2026-05-07 14:28 -19.25558 146.76951 21 ft 2 kts 105°
2026-05-07 14:28 -19.25555 146.76940 24 ft 2 kts 105°
2026-05-07 14:28 -19.25555 146.76937 25 ft 0 kts 105°
2026-05-07 14:36 -19.25555 146.76938 25 ft 1 kts 105°
2026-05-07 14:37 -19.25551 146.76950 24 ft 3 kts 51°
2026-05-07 14:37 -19.25488 146.76953 21 ft 7 kts 13°
2026-05-07 14:37 -19.25435 146.76944 21 ft 8 kts 319°
2026-05-07 14:38 -19.25399 146.76891 21 ft 9 kts 317°
2026-05-07 14:38 -19.25337 146.76892 21 ft 10 kts 27°
2026-05-07 14:38 -19.25271 146.76928 21 ft 11 kts 27°
2026-05-07 14:38 -19.25199 146.76968 21 ft 12 kts 28°
2026-05-07 14:39 -19.25121 146.77012 21 ft 13 kts 27°
2026-05-07 14:39 -19.25042 146.77055 21 ft 13 kts 27°
2026-05-07 14:39 -19.24962 146.77099 21 ft 13 kts 27°
2026-05-07 14:39 -19.24879 146.77145 21 ft 14 kts 27°
2026-05-07 14:40 -19.24789 146.77194 21 ft 15 kts 27°
2026-05-07 14:40 -19.24697 146.77245 21 ft 15 kts 28°
2026-05-07 14:40 -19.24608 146.77295 21 ft 14 kts 27°
2026-05-07 14:40 -19.24519 146.77343 21 ft 15 kts 27°
2026-05-07 14:41 -19.24424 146.77395 21 ft 16 kts 25°
2026-05-07 14:41 -19.24325 146.77441 21 ft 15 kts 24°
2026-05-07 14:41 -19.24229 146.77486 21 ft 15 kts 24°
2026-05-07 14:41 -19.24137 146.77530 21 ft 14 kts 24°
2026-05-07 14:42 -19.24049 146.77571 22 ft 14 kts 23°
2026-05-07 14:42 -19.23961 146.77597 21 ft 13 kts 357°
2026-05-07 14:42 -19.23891 146.77562 21 ft 10 kts 317°
2026-05-07 14:42 -19.23871 146.77527 22 ft 0 kts 295°
2026-05-07 14:45 -19.23869 146.77523 22 ft 3 kts 295°
2026-05-07 14:45 -19.23850 146.77480 22 ft 9 kts 294°
2026-05-07 14:45 -19.23849 146.77418 22 ft 9 kts 242°
2026-05-07 14:45 -19.23917 146.77376 21 ft 28 kts 204°
2026-05-07 14:46 -19.24383 146.77157 22 ft 117 kts 204°
2026-05-07 14:46 -19.25363 146.76695 145 ft 181 kts 202°
2026-05-07 14:46 -19.26501 146.76151 1330 ft 173 kts 201°
2026-05-07 14:46 -19.27631 146.75621 2272 ft 191 kts 200°
2026-05-07 14:47 -19.28951 146.75010 2591 ft 221 kts 200°
2026-05-07 14:47 -19.30425 146.74310 2998 ft 239 kts 203°
2026-05-07 14:47 -19.31798 146.73260 3623 ft 252 kts 214°
2026-05-07 14:47 -19.33255 146.72157 4219 ft 265 kts 211°
2026-05-07 14:48 -19.34778 146.71066 4779 ft 265 kts 210°
2026-05-07 14:48 -19.36339 146.70007 5471 ft 270 kts 202°
2026-05-07 14:48 -19.38103 146.69335 6394 ft 270 kts 194°
2026-05-07 14:48 -19.39936 146.68796 7196 ft 276 kts 194°
2026-05-07 14:49 -19.41807 146.68241 7994 ft 282 kts 195°
2026-05-07 14:49 -19.43717 146.67654 8806 ft 289 kts 196°
2026-05-07 14:49 -19.45684 146.67136 9577 ft 297 kts 184°
2026-05-07 14:49 -19.47712 146.67423 10339 ft 303 kts 162°
2026-05-07 14:50 -19.49738 146.68281 10659 ft 326 kts 157°
2026-05-07 14:50 -19.51893 146.69315 10838 ft 351 kts 156°
2026-05-07 14:50 -19.54175 146.70435 11169 ft 368 kts 156°
2026-05-07 14:50 -19.56529 146.71578 11737 ft 375 kts 157°
2026-05-07 14:51 -19.58918 146.72724 12403 ft 379 kts 158°
2026-05-07 14:51 -19.61353 146.73878 12955 ft 385 kts 158°
2026-05-07 14:51 -19.63768 146.75016 13030 ft 385 kts 158°
2026-05-07 14:51 -19.66237 146.76175 13055 ft 386 kts 158°
2026-05-07 14:52 -19.68703 146.77335 13041 ft 386 kts 158°
2026-05-07 14:52 -19.71119 146.78608 13034 ft 389 kts 147°
2026-05-07 14:52 -19.73027 146.80592 13055 ft 392 kts 126°
2026-05-07 14:52 -19.74247 146.83174 13048 ft 393 kts 106°
2026-05-07 14:53 -19.74911 146.85988 13063 ft 392 kts 102°
2026-05-07 14:53 -19.75493 146.88832 13057 ft 393 kts 101°
2026-05-07 14:53 -19.76060 146.91632 13049 ft 393 kts 102°
2026-05-07 14:53 -19.76658 146.94478 13050 ft 393 kts 102°
2026-05-07 14:54 -19.77276 146.97317 13051 ft 393 kts 103°
2026-05-07 14:54 -19.77899 147.00144 13048 ft 393 kts 103°
2026-05-07 14:54 -19.78519 147.02988 13250 ft 398 kts 102°
2026-05-07 14:54 -19.79124 147.05834 13863 ft 402 kts 102°
2026-05-07 14:55 -19.79740 147.08745 14466 ft 405 kts 102°
2026-05-07 14:55 -19.80360 147.11664 15081 ft 407 kts 102°
2026-05-07 14:55 -19.80988 147.14617 15655 ft 411 kts 102°
2026-05-07 14:55 -19.81774 147.17545 16177 ft 416 kts 115°
2026-05-07 14:56 -19.83345 147.20125 16723 ft 418 kts 134°
2026-05-07 14:56 -19.85564 147.22116 17317 ft 417 kts 146°
2026-05-07 14:56 -19.87933 147.23919 17861 ft 421 kts 147°
2026-05-07 14:56 -19.90350 147.25721 18371 ft 426 kts 147°
2026-05-07 14:57 -19.92795 147.27542 18815 ft 430 kts 147°
2026-05-07 14:57 -19.95253 147.29386 19253 ft 434 kts 147°
2026-05-07 14:57 -19.97728 147.31258 19684 ft 438 kts 146°
2026-05-07 14:57 -20.00194 147.33135 20114 ft 442 kts 146°
2026-05-07 14:58 -20.02699 147.35050 20546 ft 446 kts 146°
2026-05-07 14:58 -20.05229 147.36990 20972 ft 450 kts 146°
2026-05-07 14:58 -20.07777 147.38946 21382 ft 454 kts 146°
2026-05-07 14:58 -20.10352 147.40923 21810 ft 457 kts 146°
2026-05-07 14:59 -20.12948 147.42918 22214 ft 461 kts 146°
2026-05-07 14:59 -20.15567 147.44929 22607 ft 465 kts 146°
2026-05-07 14:59 -20.18207 147.46958 23014 ft 469 kts 146°
2026-05-07 14:59 -20.20864 147.49001 23394 ft 472 kts 146°
2026-05-07 15:00 -20.23502 147.51030 23736 ft 476 kts 146°
2026-05-07 15:00 -20.26207 147.53111 24051 ft 479 kts 146°
2026-05-07 15:00 -20.28921 147.55200 24386 ft 482 kts 146°
2026-05-07 15:00 -20.31654 147.57304 24707 ft 484 kts 146°
2026-05-07 15:01 -20.34395 147.59415 25011 ft 488 kts 146°
2026-05-07 15:01 -20.37154 147.61543 25298 ft 491 kts 146°
2026-05-07 15:01 -20.39893 147.63655 25594 ft 494 kts 147°
2026-05-07 15:01 -20.42692 147.65814 25902 ft 496 kts 147°
2026-05-07 15:02 -20.45495 147.67976 26189 ft 499 kts 147°
2026-05-07 15:02 -20.48326 147.70161 26469 ft 502 kts 147°
2026-05-07 15:02 -20.51171 147.72359 26748 ft 505 kts 147°
2026-05-07 15:02 -20.54021 147.74560 27028 ft 507 kts 147°
2026-05-07 15:03 -20.56867 147.76761 27295 ft 510 kts 147°
2026-05-07 15:03 -20.59751 147.78990 27537 ft 513 kts 148°
2026-05-07 15:03 -20.62676 147.81204 27806 ft 515 kts 148°
2026-05-07 15:03 -20.65629 147.83400 28071 ft 518 kts 149°
2026-05-07 15:04 -20.68596 147.85589 28333 ft 520 kts 149°
2026-05-07 15:04 -20.71577 147.87786 28586 ft 522 kts 149°
2026-05-07 15:04 -20.74573 147.89998 28813 ft 525 kts 149°
2026-05-07 15:04 -20.77585 147.92228 29043 ft 527 kts 149°
2026-05-07 15:05 -20.80563 147.94440 29281 ft 529 kts 149°
2026-05-07 15:05 -20.83598 147.96698 29522 ft 531 kts 149°
2026-05-07 15:05 -20.86638 147.98963 29757 ft 533 kts 149°
2026-05-07 15:05 -20.89692 148.01241 29990 ft 535 kts 149°
2026-05-07 15:06 -20.92748 148.03522 30216 ft 537 kts 149°
2026-05-07 15:06 -20.95825 148.05820 30470 ft 536 kts 149°
2026-05-07 15:06 -20.98881 148.08103 30776 ft 535 kts 149°
2026-05-07 15:06 -21.01931 148.10383 31118 ft 534 kts 149°
2026-05-07 15:07 -21.04951 148.12641 31355 ft 535 kts 149°
2026-05-07 15:07 -21.08008 148.14927 31573 ft 536 kts 149°
2026-05-07 15:07 -21.11040 148.17194 31833 ft 536 kts 149°
2026-05-07 15:07 -21.14105 148.19488 32133 ft 536 kts 149°
2026-05-07 15:08 -21.17167 148.21781 32433 ft 535 kts 149°
2026-05-07 15:08 -21.20225 148.24073 32705 ft 536 kts 149°
2026-05-07 15:08 -21.23278 148.26361 32955 ft 537 kts 149°
2026-05-07 15:08 -21.26343 148.28660 33224 ft 537 kts 149°
2026-05-07 15:09 -21.29405 148.30958 33522 ft 536 kts 149°
2026-05-07 15:09 -21.32468 148.33257 33816 ft 537 kts 149°
2026-05-07 15:09 -21.35489 148.35527 34067 ft 537 kts 149°
2026-05-07 15:09 -21.38570 148.37842 34284 ft 538 kts 149°
2026-05-07 15:10 -21.41641 148.40151 34524 ft 538 kts 149°
2026-05-07 15:10 -21.44719 148.42467 34779 ft 538 kts 149°
2026-05-07 15:10 -21.47778 148.44770 35018 ft 538 kts 149°
2026-05-07 15:10 -21.50813 148.47056 35238 ft 538 kts 149°
2026-05-07 15:11 -21.53883 148.49369 35459 ft 538 kts 149°
2026-05-07 15:11 -21.56955 148.51685 35683 ft 538 kts 150°
2026-05-07 15:11 -21.60033 148.54007 35911 ft 538 kts 150°
2026-05-07 15:11 -21.63101 148.56322 36130 ft 539 kts 150°
2026-05-07 15:12 -21.66166 148.58637 36350 ft 539 kts 150°
2026-05-07 15:12 -21.69235 148.60955 36543 ft 539 kts 150°
2026-05-07 15:12 -21.72274 148.63252 36754 ft 540 kts 150°
2026-05-07 15:12 -21.75349 148.65583 36960 ft 540 kts 149°
2026-05-07 15:13 -21.78424 148.67920 37165 ft 540 kts 146°
2026-05-07 15:13 -21.81330 148.70515 37359 ft 545 kts 136°
2026-05-07 15:13 -21.87072 148.75767 37514 ft 540 kts 149°
2026-05-07 15:14 -21.90235 148.77933 37815 ft 534 kts 152°
2026-05-07 15:14 -21.93410 148.80011 37981 ft 534 kts 152°
2026-05-07 15:14 -21.99713 148.84324 38231 ft 537 kts 149°
2026-05-07 15:15 -22.01765 148.85813 38372 ft 536 kts 148°
2026-05-07 15:15 -22.05829 148.88855 38689 ft 534 kts 147°
2026-05-07 15:15 -22.08856 148.91169 38870 ft 533 kts 147°
2026-05-07 15:15 -22.11881 148.93494 38992 ft 532 kts 147°
2026-05-07 15:16 -22.16903 148.97350 39098 ft 533 kts 147°
2026-05-07 15:16 -22.22978 149.01992 39113 ft 534 kts 147°
2026-05-07 15:17 -22.29051 149.06622 39107 ft 536 kts 147°
2026-05-07 15:17 -22.35125 149.11257 39112 ft 537 kts 147°
2026-05-07 15:18 -22.41233 149.15926 39102 ft 538 kts 147°
2026-05-07 15:18 -22.47353 149.20609 39106 ft 539 kts 147°
2026-05-07 15:19 -22.53450 149.25280 39111 ft 538 kts 147°
2026-05-07 15:19 -22.59573 149.29974 39107 ft 538 kts 148°
2026-05-07 15:20 -22.65705 149.34643 39111 ft 537 kts 148°
2026-05-07 15:20 -22.71811 149.39324 39111 ft 537 kts 148°
2026-05-07 15:21 -22.77871 149.43987 39117 ft 536 kts 148°
2026-05-07 15:21 -22.83979 149.48687 39117 ft 536 kts 148°
2026-05-07 15:22 -22.90065 149.53365 39112 ft 536 kts 148°
2026-05-07 15:22 -22.96142 149.58025 38926 ft 541 kts 148°
2026-05-07 15:23 -22.99222 149.60380 38678 ft 537 kts 148°
2026-05-07 15:23 -23.02256 149.62723 38399 ft 534 kts 148°
2026-05-07 15:23 -23.05306 149.64990 38092 ft 524 kts 153°
2026-05-07 15:23 -23.08384 149.67034 37852 ft 513 kts 154°
2026-05-07 15:24 -23.11388 149.68969 37625 ft 504 kts 154°
2026-05-07 15:24 -23.14378 149.70862 37567 ft 490 kts 155°
2026-05-07 15:24 -23.17328 149.72715 37266 ft 490 kts 155°
2026-05-07 15:24 -23.20293 149.74566 37165 ft 492 kts 155°
2026-05-07 15:25 -23.26265 149.78308 37137 ft 499 kts 155°
2026-05-07 15:25 -23.32293 149.82114 37138 ft 508 kts 155°
2026-05-07 15:26 -23.38464 149.86029 37135 ft 517 kts 155°
2026-05-07 15:26 -23.44745 149.90021 37144 ft 525 kts 155°